GW0416 Weather Reports


time (UTC)temp
C
wind
direction
speed
KPH
gust
KPH
rain 1hr
cm
rain 24hr
cm
rain mn
cm
humidity
%
barometer
mb
20260903163037 15 242 11.3 17.7 0.00 0.18 0.00 63 1008.5
20260903161536 13 249 9.7 16.1 0.00 0.18 0.00 68 1008.4
20260903160038 13 264 8.0 16.1 0.00 0.18 0.00 71 1008.4
20260903154543 12 246 11.3 19.3 0.00 0.18 0.00 73 1008.5
20260903153046 12 236 14.5 20.9 0.00 0.18 0.00 74 1008.5
20260903151537 12 230 12.9 20.9 0.00 0.18 0.00 75 1008.6
20260903150035 11 242 11.3 22.5 0.00 0.18 0.00 76 1008.4
20260903144541 11 230 14.5 20.9 0.00 0.18 0.00 77 1008.6
20260903143045 10 229 12.9 20.9 0.00 0.18 0.00 77 1008.4
20260903141542 10 215 14.5 25.7 0.00 0.18 0.00 77 1008.2
20260903140038 10 203 14.5 22.5 0.00 0.18 0.00 78 1008.0
20260903134536 10 233 11.3 22.5 0.00 0.18 0.00 77 1007.9
20260903133035 9 217 12.9 19.3 0.00 0.18 0.00 78 1007.8
20260903131535 9 202 11.3 22.5 0.00 0.18 0.00 78 1007.6
20260903130038 8 207 11.3 14.5 0.00 0.18 0.00 80 1007.4
20260903124535 7 188 11.3 14.5 0.00 0.18 0.00 81 1007.2
20260903123035 8 172 9.7 22.5 0.00 0.18 0.00 78 1006.9
20260903121534 9 214 16.1 25.7 0.00 0.18 0.00 73 1006.9
20260903120039 8 244 12.9 19.3 0.00 0.18 0.00 76 1006.9
20260903114532 10 245 14.5 24.1 0.00 0.18 0.00 72 1007.0
20260903113033 7 234 3.2 16.1 0.00 0.18 0.00 75 1007.2
20260903111546 10 252 11.3 17.7 0.00 0.18 0.00 70 1007.1
20260903110034 9 261 8.0 11.3 0.00 0.18 0.00 73 1007.3
20260903104537 8 257 3.2 6.4 0.00 0.18 0.00 76 1007.3
20260903103051 8 198 8.0 12.9 0.00 0.18 0.00 74 1007.3
20260903101534 8 229 4.8 8.0 0.00 0.18 0.00 75 1007.2
20260903100038 8 0 0.0 3.2 0.00 0.18 0.00 77 1007.1
20260903094539 9 227 0.0 4.8 0.00 0.18 0.00 75 1007.3
20260903093046 9 229 3.2 6.4 0.00 0.18 0.00 73 1006.9
20260903091539 9 242 3.2 6.4 0.00 0.18 0.00 73 1006.9
20260903090038 10 242 0.0 4.8 0.00 0.18 0.00 73 1007.0
20260903084544 10 244 4.8 12.9 0.00 0.18 0.00 73 1006.8
20260903083033 9 212 8.0 11.3 0.00 0.18 0.00 77 1006.8
20260903081535 8 198 6.4 8.0 0.00 0.18 0.00 79 1006.8
20260903080039 8 188 12.9 19.3 0.00 0.18 0.00 78 1006.8
20260903074536 8 217 11.3 16.1 0.00 0.18 0.00 79 1006.8
20260903073037 9 175 9.7 17.7 0.00 0.18 0.00 76 1006.9
20260903071534 9 205 12.9 19.3 0.00 0.18 0.00 78 1006.8
20260903070035 11 232 11.3 17.7 0.00 0.18 0.00 71 1006.8
20260903064542 11 232 11.3 16.1 0.00 0.18 0.00 73 1006.6
20260903063044 10 234 8.0 16.1 0.00 0.18 0.00 77 1006.8
20260903061537 10 207 11.3 14.5 0.00 0.18 0.00 78 1006.6
20260903060042 10 202 8.0 14.5 0.00 0.18 0.00 78 1006.9
20260903054537 11 202 11.3 22.5 0.00 0.18 0.18 77 1007.1
20260903053037 11 184 16.1 25.7 0.00 0.18 0.18 78 1007.1
20260903051536 10 208 11.3 16.1 0.00 0.18 0.18 82 1007.3
20260903050044 10 221 11.3 24.1 0.00 0.18 0.18 81 1007.3
20260903044544 10 227 12.9 17.7 0.00 0.18 0.18 80 1007.5
20260903043036 11 230 14.5 19.3 0.00 0.18 0.18 76 1007.4
20260903041542 12 222 12.9 22.5 0.00 0.18 0.18 73 1007.2
20260903040038 11 229 11.3 19.3 0.00 0.18 0.18 76 1007.6
20260903034538 12 238 11.3 22.5 0.00 0.18 0.18 74 1007.5
20260903033036 11 244 16.1 24.1 0.00 0.18 0.18 74 1007.3
20260903031538 12 240 16.1 27.4 0.00 0.18 0.18 72 1007.1
20260903030035 12 201 14.5 29.0 0.00 0.18 0.18 73 1007.3
20260903024535 12 288 20.9 30.6 0.00 0.18 0.18 73 1007.0
20260903023034 13 270 20.9 33.8 0.00 0.18 0.18 73 1006.5
20260903021536 13 246 24.1 37.0 0.00 0.18 0.18 73 1006.8
20260903020057 13 200 17.7 22.5 0.00 0.18 0.18 77 1006.8
20260903014537 15 227 9.7 16.1 0.00 0.18 0.18 70 1006.4
20260903013035 16 185 9.7 12.9 0.00 0.18 0.18 70 1007.0
20260903011538 16 171 6.4 11.3 0.00 0.18 0.18 64 1007.2
20260903010035 15 169 9.7 12.9 0.03 0.18 0.18 68 1007.2
20260903004537 15 269 6.4 14.5 0.05 0.18 0.18 72 1006.8
20260903003034 15 328 9.7 20.9 0.10 0.18 0.18 74 1006.6
20260903001552 15 318 3.2 11.3 0.10 0.18 0.18 70 1007.6
20260903000041 15 285 11.3 29.0 0.08 0.15 0.15 71 1008.1
20260902234539 15 216 32.2 48.3 0.13 0.13 0.13 68 1008.9
20260902233036 15 230 51.5 70.8 0.08 0.08 0.08 70 1008.2
20260902231540 15 206 41.8 62.8 0.08 0.08 0.08 70 1007.9
20260902230037 14 240 48.3 96.6 0.08 0.08 0.08 73 1007.1
20260902224534 24 223 38.6 66.0 0.00 0.00 0.00 32 1004.6
20260902223036 27 171 12.9 27.4 0.00 0.00 0.00 30 1003.2
20260902221551 27 200 16.1 32.2 0.00 0.00 0.00 29 1003.2
20260902220037 27 161 17.7 29.0 0.00 0.00 0.00 28 1003.2
20260902214535 28 205 29.0 46.7 0.00 0.00 0.00 29 1003.5
20260902213036 27 172 17.7 41.8 0.00 0.00 0.00 31 1003.5
20260902211536 27 148 12.9 30.6 0.00 0.00 0.00 32 1003.7
20260902210036 26 167 16.1 30.6 0.00 0.00 0.00 32 1004.2
20260902204543 26 146 19.3 29.0 0.00 0.00 0.00 32 1004.8
20260902203036 25 149 16.1 32.2 0.00 0.00 0.00 34 1005.0
20260902201540 25 151 20.9 33.8 0.00 0.00 0.00 34 1005.3
20260902200037 25 179 17.7 32.2 0.00 0.00 0.00 37 1005.4
20260902194549 25 190 14.5 25.7 0.00 0.00 0.00 38 1005.4
20260902193037 24 158 16.1 24.1 0.00 0.00 0.00 38 1005.5
20260902191546 24 209 16.1 30.6 0.00 0.00 0.00 38 1005.7
20260902190036 24 160 19.3 32.2 0.00 0.00 0.00 37 1006.0
20260902184535 23 192 17.7 32.2 0.00 0.00 0.00 40 1006.1
20260902183045 23 166 20.9 32.2 0.00 0.00 0.00 40 1006.4
20260902181533 23 215 14.5 33.8 0.00 0.00 0.00 41 1006.4
20260902180037 23 175 20.9 33.8 0.00 0.00 0.00 43 1006.6
20260902174535 22 190 17.7 32.2 0.00 0.00 0.00 43 1006.8
20260902173050 22 193 22.5 33.8 0.00 0.00 0.00 44 1006.9
20260902171534 22 214 19.3 30.6 0.00 0.00 0.00 43 1006.9
20260902170038 22 175 16.1 25.7 0.00 0.00 0.00 46 1006.9
20260902164541 21 194 20.9 30.6 0.00 0.00 0.00 46 1006.9